Regional Weather Roundup
Issued by NWS Mt. Holly, NJ

Home | Current Version | Previous Version | Text Only | Print | Product List | Glossary On
Versions: 1 2 3 4 5 6 7 8 9 10 11 12 13 14 15 16 17 18 19 20 21 22 23 24 25 26 27 28 29 30 31 32 33 34 35 36 37 38 39 40 41 42 43 44 45 46 47 48 49 50
000
ASUS41 KPHI 140612
RWRPHI

REGIONAL WEATHER ROUNDUP
NATIONAL WEATHER SERVICE MOUNT HOLLY NJ
100 AM EST WED NOV 14 2018

NOTE:  "FAIR" INDICATES FEW OR NO CLOUDS BELOW 12,000 FEET WITH NO
SIGNIFICANT WEATHER AND/OR OBSTRUCTIONS TO VISIBILITY.

 * = STATION DOES NOT REPORT PRECIPITATION (E.G. RAIN, SNOW, ETC.)
        OR FOG.

NJZ015>026-140700-
SOUTHERN NEW JERSEY

CITY           SKY/WX    TMP DP  RH WIND       PRES   REMARKS
POMONA         FAIR      44  33  65 W10G17    30.21R
6HR MIN TEMP:  44; 6HR MAX TEMP:  47;

WILDWOOD*      CLOUDY    45  34  65 NW13G18   30.22S
MILLVILLE      FAIR      43  28  55 NW12G20   30.23R
WRIGHTSTOWN    FAIR      41  29  61 W8        30.16R
MOUNT HOLLY    FAIR      42  27  55 W8G21     30.21R
TRENTON        MOCLDY    42  28  57 W7        30.18R
6HR MIN TEMP:  42; 6HR MAX TEMP:  45;


$$
NJZ001>014-140700-
NORTHERN NEW JERSEY

CITY           SKY/WX    TMP DP  RH WIND       PRES   REMARKS
SUSSEX         FAIR      36  20  52 VRB7G21   30.17R WCI  30
ANDOVER*         N/A     35  21  56 VRB3      30.17R
MORRISTOWN     CLOUDY   N/A N/A N/A NW13G25   30.18R
NEWARK         CLOUDY    41  23  48 NW22G28   30.17R
TETERBORO      CLOUDY    41  22  46 NW14G26   30.16R
CALDWELL       CLOUDY    39  24  55 NW6       30.18R WCI  35
SOMERVILLE     CLOUDY    41  27  57 NW7       30.17R
ALLAIRE*       FAIR      41  32  70 W14G22    30.18R
TOMS RIVER*    FAIR      42  31  64 W7        30.19R

$$
PAZ043-044-047-054-055-060>062-066>071-140700-
EASTERN PENNSYLVANIA

CITY           SKY/WX    TMP DP  RH WIND       PRES   REMARKS
PHILADELPHIA   CLOUDY    42  24  49 W15G24    30.22S
6HR MIN TEMP:  42; 6HR MAX TEMP:  45;

NORTH PHILA    FAIR      43  28  55 NW13G20   30.21R
BLUE BELL*     FAIR      37  28  70 W3        30.22R
DOYLESTOWN     FAIR      39  27  62 W9        30.19R WCI  33
QUAKERTOWN*    MOCLDY    39  28  65 W7        30.19R WCI  34
PERKASIE*      MOCLDY    37  27  65 W7        30.19R WCI  32
POTTSTOWN      FAIR      37  25  61 W7        30.22R WCI  32
LANCASTER      FAIR      38  23  55 NW13      30.24R WCI  30
COATESVILLE    FAIR      36  25  64 NW14      30.23R WCI  27
READING        FAIR      38  25  59 W13       30.21R WCI  30
6HR MIN TEMP:  38; 6HR MAX TEMP:  44;

ALLENTOWN      CLOUDY    40  28  62 NW9       30.19R WCI  34
6HR MIN TEMP:  40; 6HR MAX TEMP:  44;

MOUNT POCONO   MOCLDY    28  21  75 W14G22    30.10S WCI  17
6HR MIN TEMP:  28; 6HR MAX TEMP:  34; 6HR PCP: TRACE;

HAZLETON       CLOUDY    32  25  74 NW10      30.17R WCI  24
LEHIGHTON      CLOUDY    37  28  70 W6        30.20R WCI  33
WILKES BARRE   MOCLDY    32  22  66 NW8       30.18R WCI  25

$$
DEZALL-MDZ008-012-015-019-020-140700-
DELAWARE AND EASTERN MARYLAND

CITY           SKY/WX    TMP DP  RH WIND       PRES   REMARKS
WILMINGTON     FAIR      41  26  55 NW14      30.25R
6HR MIN TEMP:  41; 6HR MAX TEMP:  45;

DOVER          CLOUDY    44  34  69 W8        30.23R
GEORGETOWN     FAIR      47  35  63 NW6       30.24S
6HR MIN TEMP:  47; 6HR MAX TEMP:  50;

PATUXENT       MOCLDY    44  36  73 W9        30.26
OCEAN CITY     FAIR      45  36  70 NW10      30.23R
WALLOPS ISLAND FAIR      47  36  65 NW9       30.24S
CAMBRIDGE      CLOUDY    46  36  66 NW10G17   30.26R
SALISBURY      FAIR      45  37  73 NW7       30.24R

$$
PAZ001-021-NYZ056-072-MDZ011-DCZ001-140700-
OTHER NEARBY LOCATIONS

CITY           SKY/WX    TMP DP  RH WIND       PRES   REMARKS
STATE COLLEGE  FAIR      32  23  69 W10G16    30.24R WCI  24
WILLIAMSPORT   CLOUDY    36  24  62 W14G22    30.22R WCI  27
BINGHAMTON     MOCLDY    26  20  77 W12       30.13R WCI  16
NEW YORK CITY  CLOUDY    41  20  43 MISG      30.18R
BALTIMORE      CLOUDY    41  30  65 NW9       30.27R
WASHINGTON DC  CLOUDY    44  30  57 N16       30.29R

$$



USA.gov is the U.S. government's official web portal to all federal, state and local government web resources and services.